Location: Seattle
(47.6064°N, 122.3308°W)
Time: 04:08:10
(UTC-07:00)

AO-7 - Pass Details

Date: 29 March 2023
Orbit: 1439 x 1459 km, 101.9° (Epoch: 07 June)

Event Time Altitude Azimuth Distance (km) Brightness Sun altitude
Rises 06:17:58 0° 19° (NNE) 4,569 ? -6.9°
Reaches altitude 10° 06:20:46 10° 20° (NNE) 3,585 ? -6.4°
Maximum altitude 06:29:10 85° 109° (ESE) 1,460 ? -5.0°
Drops below altitude 10° 06:37:29 10° 199° (SSW) 3,551 ? -3.6°
Sets 06:40:15 0° 200° (SSW) 4,524 ? -3.2°
